Location: Launois
(49.6535°N, 4.5395°E)
Time: 08:18:33
(UTC+00:00)

CZ-2D R/B - Pass Details

Date: 16 August 2024
Orbit: 791 x 842 km, 98.8° (Epoch: 16 September)

Event Time Altitude Azimuth Distance (km) Brightness Sun altitude
Rises 01:03:27 0° 22° (NNE) 3,341 6.7 -24.5°
Reaches altitude 10° 01:06:01 10° 32° (NNE) 2,413 5.6 -24.3°
Maximum altitude 01:10:49 33° 96° (E) 1,347 3.3 -24.0°
Enters shadow 01:12:46 26° 134° (SE) 1,576 3.4 -23.9°
